FW4361 Weather Reports


Display with metric or nautical units.
time (UTC)temp
F
wind
direction
speed
MPH
gust
MPH
rain 1hr
in
rain 24hr
in
rain mn
in
humidity
%
barometer
mb
20260505083051 46 188 7.0 16.0 0.00 0.00 0.00 86 1011.9
20260505081548 46 188 7.0 19.0 0.00 0.00 0.00 86 1011.8
20260505080054 46 224 9.0 19.0 0.00 0.00 0.00 86 1011.8
20260505074549 45 173 6.0 19.0 0.00 0.00 0.00 85 1011.8
20260505073104 46 213 8.0 18.0 0.00 0.00 0.00 85 1011.7
20260505071553 46 152 8.0 23.0 0.00 0.00 0.00 85 1011.6
20260505070054 46 310 9.0 19.0 0.00 0.00 0.00 85 1011.1
20260505064748 46 182 8.0 20.0 0.00 0.00 0.00 84 1011.1
20260505063053 46 219 9.0 20.0 0.00 0.00 0.00 84 1010.9
20260505061557 46 195 11.0 22.0 0.00 0.00 0.00 83 1010.6
20260505060051 46 180 8.0 20.0 0.00 0.00 0.00 82 1010.5
20260505054611 46 170 7.0 24.0 0.00 0.00 0.00 82 1010.6
20260505053108 46 196 8.0 20.0 0.00 0.00 0.00 82 1010.9
20260505051553 46 195 9.0 18.0 0.00 0.00 0.00 82 1011.0
20260505050104 46 201 8.0 18.0 0.00 0.00 0.00 82 1011.1
20260505041556 46 216 8.0 17.0 0.00 0.02 0.00 82 1011.6
20260505040056 46 244 7.0 17.0 0.00 0.02 0.00 82 1011.5
20260505034552 45 234 8.0 16.0 0.00 0.13 0.00 82 1011.3
20260505033050 45 211 5.0 16.0 0.00 0.13 0.00 82 1011.1
20260505031605 45 232 5.0 13.0 0.00 0.13 0.00 82 1011.1
20260505030049 45 156 6.0 14.0 0.00 0.13 0.00 81 1010.8
20260505024554 45 138 6.0 15.0 0.00 0.29 0.13 81 1010.7
20260505023106 45 223 5.0 18.0 0.00 0.29 0.13 80 1010.7
20260505021554 45 305 5.0 15.0 0.00 0.29 0.13 80 1010.7
20260505020050 46 223 6.0 14.0 0.00 0.29 0.13 79 1010.8
20260505014601 46 193 5.0 14.0 0.00 0.51 0.13 79 1010.5
20260505013108 46 256 5.0 13.0 0.00 0.51 0.13 79 1010.3
20260505011547 46 238 5.0 16.0 0.00 0.51 0.13 79 1009.9
20260505010049 46 223 5.0 16.0 0.00 0.51 0.13 80 1009.9
20260505004555 46 236 8.0 14.0 0.00 0.77 0.13 81 1009.7
20260505003047 46 247 8.0 18.0 0.00 0.77 0.13 80 1009.6
20260505001554 46 263 7.0 17.0 0.00 0.77 0.13 80 1009.4
20260505000106 47 229 7.0 21.0 0.00 0.77 0.13 79 1009.1
20260504234552 47 238 8.0 24.0 0.00 0.92 0.13 78 1008.7
20260504233055 47 182 9.0 22.0 0.00 0.92 0.13 78 1008.2
20260504231550 47 215 13.0 30.0 0.00 0.92 0.13 78 1007.8
20260504230104 48 196 11.0 23.0 0.00 0.92 0.13 78 1007.8
20260504224552 49 176 11.0 27.0 0.00 0.93 0.13 77 1007.6
20260504223049 49 191 10.0 20.0 0.00 0.93 0.13 77 1007.4
20260504221557 49 227 12.0 24.0 0.00 0.93 0.13 77 1007.6
20260504220055 50 224 10.0 26.0 0.00 0.93 0.13 76 1007.3
20260504214548 51 229 9.0 23.0 0.00 0.93 0.13 75 1007.5
20260504213046 50 197 9.0 21.0 0.00 0.93 0.13 77 1007.5
20260504211550 50 180 11.0 23.0 0.00 0.93 0.13 77 1007.5
20260504210051 50 164 10.0 22.0 0.00 0.93 0.13 77 1007.7
20260504204549 50 205 10.0 27.0 0.00 0.96 0.13 77 1007.7
20260504203101 49 196 10.0 22.0 0.00 0.96 0.13 78 1007.9
20260504201554 50 154 9.0 22.0 0.00 0.96 0.13 78 1008.0
20260504200053 51 156 6.0 16.0 0.00 0.96 0.13 76 1008.1
20260504194552 51 219 8.0 24.0 0.00 1.08 0.13 75 1007.8
20260504193049 52 212 12.0 22.0 0.00 1.08 0.13 73 1007.6
20260504191600 53 209 8.0 22.0 0.00 1.08 0.13 72 1007.5
20260504190046 53 218 12.0 20.0 0.00 1.08 0.13 73 1007.4
20260504184550 53 213 11.0 23.0 0.00 1.20 0.13 72 1007.4
20260504183047 52 207 10.0 21.0 0.00 1.20 0.13 73 1007.4
20260504181555 53 201 9.0 24.0 0.00 1.20 0.13 71 1007.5
20260504180050 52 235 9.0 22.0 0.00 1.20 0.13 71 1007.5
20260504174550 53 214 7.0 18.0 0.00 1.29 0.13 71 1007.5
20260504173055 53 229 7.0 18.0 0.00 1.29 0.13 71 1007.4
20260504171551 54 172 7.0 19.0 0.00 1.29 0.13 68 1007.6